STARLINK-4782 (53933 NORAD) Tracking and Keplerian Element Data

This shows tracking and keplerian element data for the satellite.

Feedback or suggestion? Click here.




ElementValue
Catalog53933
NameSTARLINK-4782
Epoch Orbit945
Epoch Day325.25001157
Epoch Year2022
RAAN329.4774
Inclination53.2149
Eccentricity0.0004252
Argument of Perigee4.9775
Mean Anonmoly107.613
Mean Motion15.73168499
Decay Rate0.0002532
L11 53933U 22119AZ 22325.25001157 .00025320 00000+0 18447-3 0 9991
L22 53933 53.2149 329.4774 0004252 4.9775 107.6130 15.73168499 9459



Live tracking and technical data element details for STARLINK-4782 (NORAD 53933). STARLINK-4782 can be tracked NOW for your location showing map with azimuth and elevation plus other details from your city location.







IsCatalogInMostPopularTable: catalog: 53933, numindb: 1
Update: records affected: 1



GetName: 53933 STARLINK-4782

Hit Count: updated at: Fri, 09 Dec 2022 19:17:06 GMT